Regional Weather Roundup
Issued by NWS Green Bay, WI

Home | Current Version | Previous Version | Text Only | Print | Product List | Glossary On
Versions: 1 2 3 4 5 6 7 8 9 10 11 12 13 14 15 16 17 18 19 20 21 22 23 24 25 26 27 28 29 30 31 32 33 34 35 36 37 38 39 40 41 42 43 44 45 46 47 48 49 50
000
ASUS43 KGRB 271811
RWRGRB

NORTH-CENTRAL AND NORTHEAST WISCONSIN REGIONAL WEATHER ROUNDUP
NATIONAL WEATHER SERVICE GREEN BAY WI
100 PM CDT FRI MAY 27 2016

WIZ005-009-010>012-018-019-271900-
NORTH CENTRAL WISCONSIN

CITY           SKY/WX    TMP DP  RH WIND       PRES   REMARKS
IRONWOOD       CLOUDY    64  61  88 E7        29.86S
MANITOWISH WTR NOT AVBL
ARBOR VITAE    CLOUDY    72  63  73 SE5       29.90S
EAGLE RIVER      N/A     70  57  63 E6        29.90F
LAND O LAKES   CLOUDY    71  59  67 E5        29.91F
RHINELANDER    CLOUDY    69  59  70 E5        29.90S
PHILLIPS       LGT RAIN  67  59  77 E7        29.88S
ANTIGO         CLOUDY    69  62  78 E8        29.90S
TOMAHAWK       CLOUDY    67  59  73 E3        29.89S
MERRILL        CLOUDY    72  64  78 E5        29.87F
$$

WIZ013-073-271900-
NORTHEAST WISCONSIN

CITY           SKY/WX    TMP DP  RH WIND       PRES   REMARKS
IRON MOUNTAIN  CLOUDY    73  62  68 E8        29.89F
MARINETTE      CLOUDY    61  57  88 E7        29.92R
OCONTO         CLOUDY    62  62 100 CALM      29.91R
$$

WIZ017-030-035>037-045-271900-
CENTRAL WISCONSIN

CITY           SKY/WX    TMP DP  RH WIND       PRES   REMARKS
MEDFORD        CLOUDY    70  60  71 E8        29.85F
WAUSAU         CLOUDY    72  61  68 E8        29.84F
MOSINEE        CLOUDY    70  63  78 E8        29.87S
MARSHFIELD     CLOUDY    76  60  57 SE17      29.83F
WISC RAPIDS    CLOUDY    77  59  53 SE13      29.85F
STEVENS POINT  CLOUDY    71  61  70 SE7       29.86S
WAUPACA        CLOUDY    72  68  88 E5        29.87S
SHAWANO        DRIZZLE   72  65  78 S7        29.91R
CLINTONVILLE   LGT RAIN  68  64  88 E6        29.88S
WAUTOMA        CLOUDY    73  65  75 E6        29.86S
$$

WIZ038-039-048-051-271900-
FOX VALLEY

CITY           SKY/WX    TMP DP  RH WIND       PRES   REMARKS
NWS GREEN BAY  CLOUDY    67  66  97 NE8       29.88F FOG
APPLETON       CLOUDY    66  66 100 NE7       29.87F
OSHKOSH        CLOUDY    71  66  84 E6        29.86F
FOND DU LAC    CLOUDY    74  65  73 NE3       29.87F
$$

WIZ022-050-052-271900-
EAST CENTRAL WISCONSIN

CITY           SKY/WX    TMP DP  RH WIND       PRES   REMARKS
EPHRAIM        FAIR      64  61  88 S6        29.91S
STURGEON BAY   NOT AVBL
MANITOWOC      CLOUDY    57  55  93 SE9       29.90F FOG
SHEBOYGAN      CLOUDY    71  65  81 S10       29.88F
$$

LMZ563-521-522-541>543-271900-
LAKESHORE

STATION/POSITION TIME  TEMP    WIND        PRES    VSBY  WAVE
                       AIR SEA DIR/SP/G                  HT/PER
                 (UTC) (F)     (DEG/KT/KT) (MB)    (MI)  (FT/S)
SHEBOYGAN LKSHOR 1800   54     160/ 13/ 13 1012.0F
KEWAUNEE LKSHORE 1700   53     110/  3/  5 1012.2S
ALGOMA MARINA    1717          160/  5/  7   N/A
NORTHPORT PIER   1800   54     150/  8/ 12 1013.5R
N MID LAKE BUOY  1750   49 46   40/  8/  8 1012.7F         0
SISTER BAY LKSHO 1705   68     150/ 11/ 16   N/A
CHAMBERS ISLAND  1700   59     350/  5/  7 1012.5F
MENOMINEE LKSHOR 1700   56      30/ 11/ 12 1011.4R
$$




USA.gov is the U.S. government's official web portal to all federal, state and local government web resources and services.